VZLUSAT-1 (42790 NORAD) Tracking and Keplerian Element Data

This shows tracking and keplerian element data for the satellite.

Feedback or suggestion? Click here.




ElementValue
Catalog42790
NameVZLUSAT-1
Epoch Orbit6949
Epoch Day266.61388516
Epoch Year2018
RAAN325.0465
Inclination97.3922
Eccentricity0.0013089
Argument of Perigee91.785
Mean Anonmoly268.4886
Mean Motion15.22565234
Decay Rate1.975E-05
L11 42790U 17036AB 18266.61388516 .00001975 00000-0 87925-4 0 9997
L22 42790 97.3922 325.0465 0013089 91.7850 268.4886 15.22565234 69497

Live tracking and technical data element details for VZLUSAT-1 (NORAD 42790). VZLUSAT-1 can be tracked NOW for your location showing map with azimuth and elevation plus other details from your city location.

Track the satellite on the map from your city or location and see movement details for azimuth, elevation, latitude, longitude, range, height, and movement on the map or in text.







IsCatalogInMostPopularTable: catalog: 42790, numindb: 116
Update: records affected: 1



GetName: 42790 VZLUSAT-1

Hit Count: updated at: Tue, 25 Sep 2018 15:07:54 GMT